闪电 1-75星 (MOLNIYA 1-75)

导读 | 豆包AI

MOLNIYA 1-75(闪电1-75)是独联体(CIS)继承苏联航天遗产后,于1989年2月15日发射的“闪电1号”系列通信卫星,属于俄罗斯经典闪电卫星家族。卫星基于KAUR-2平台建造,运行在周期12小时的大椭圆闪电轨道,近地点约500千米、远地点4万千米,倾角约63度,主要服务高纬度地区军事通信与电视传输,支撑北半球领土长时间通信覆盖。

Basic Information
目录编号:
19807
目录名称:
MOLNIYA 1-75
国际标识:
1989-014A
轨道中心:
EARTH
卫星名称:
闪电 1-75星
卫星全名:
闪电 1-75星 (MOLNIYA 1-75)
卫星状态:
在轨 (已飞行13541 天)
发射日期:
1989-02-15 UTC
国别 :
俄罗斯(独联体) (CIS)
星等 :
--
Orbit Information
数据来源 国际轨道数据 AOE轨道数据
星历时间 2026-03-12T07:57:41+0800
2天前
查看轨道信息
2026-03-12T22:00:00+0800
1天前
查看轨道信息
半长轴 26560.578km 26560.154km
偏心率 0.6770451 0.6770797
轨道倾角 63.831° 63.832°
近地点辐角 256.281° 256.276°
升交点赤经 149.405° 149.347°
平近点角 25.407° 87.764°
近地点 2199.731km 2198.675km
远地点 38165.151km 38165.359km
周期 717.986分钟 717.969分钟
每日圈数 2.00561 2.005658
Detailed Information
平衡模式:
三轴稳定
覆盖范围:
全球
运营商:
俄罗斯国家航天集团
运营商所在国:
俄罗斯
制造商(研发单位):
普里克拉德诺伊·梅哈尼基设计局
制造商所在国:
俄罗斯联邦
使用方式:
暂无
Satellite Introduction
闪电(Molniya (Satellite))系列卫星是苏联/俄罗斯于1965年至2004年间发射的军事和通信卫星。这些卫星使用高度偏心的椭圆轨道,称为Molniya轨道(即闪电轨道),在高纬度地区具有较长的停留时间。该卫星状态未知。
2D Orbit Map
3D Orbit Map
Orbit Altitude Analysis Chart
Orbit Inclination Analysis Chart
Orbit Comprehensive Analysis Chart
View Comprehensive Chart